UTOFI Weather Reports


time (UTC)temp
F
wind
direction
speed
knots
gust
knots
rain 1hr
in
rain 24hr
in
rain mn
in
humidity
%
barometer
mb
20260506034727 41 281 9.6 12.2 0.00 0.00 0.00 83 1012.1
20260506032725 41 277 9.6 11.3 0.00 0.00 0.00 86 1011.9
20260506030726 41 279 9.6 11.3 0.00 0.00 0.00 83 1011.7
20260506024726 41 269 9.6 11.3 0.00 0.00 0.00 85 1011.6
20260506022725 40 277 8.7 10.4 0.00 0.00 0.00 87 1011.5
20260506020725 40 280 7.0 8.7 0.00 0.00 0.00 89 1011.4
20260506014725 41 268 8.7 9.6 0.00 0.00 0.00 85 1011.2
20260506012725 41 269 9.6 10.4 0.00 0.00 0.00 86 1011.0
20260506010726 41 264 9.6 11.3 0.00 0.00 0.00 83 1010.7
20260506004725 41 269 9.6 10.4 0.00 0.00 0.00 85 1010.5
20260506002725 41 269 7.8 8.7 0.00 0.00 0.00 87 1010.4
20260506000725 41 279 7.8 9.6 0.00 0.00 0.00 85 1010.3
20260505234725 40 290 8.7 11.3 0.00 0.00 0.00 82 1010.2
20260505232725 40 286 7.8 8.7 0.00 0.00 0.00 85 1010.2
20260505230725 40 282 7.0 9.6 0.00 0.00 0.00 86 1010.0
20260505224725 41 275 7.8 9.6 0.00 0.00 0.00 88 1010.0
20260505222725 41 265 9.6 10.4 0.00 0.00 0.00 90 1010.0
20260505220725 41 265 7.8 9.6 0.00 0.00 0.00 91 1009.9
20260505214725 41 273 7.8 9.6 0.00 0.00 0.00 90 1009.9
20260505212725 42 276 7.8 9.6 0.00 0.00 0.00 87 1009.8
20260505210724 41 277 7.8 10.4 0.00 0.00 0.00 88 1009.7
20260505204724 41 253 7.8 9.6 0.00 0.00 0.00 91 1009.5
20260505202725 41 245 7.8 9.6 0.00 0.00 0.00 91 1009.3
20260505200724 41 242 10.4 12.2 0.00 0.00 0.00 91 1009.2
20260505194723 41 253 10.4 12.2 0.00 0.00 0.00 91 1009.2
20260505192724 41 248 10.4 12.2 0.00 0.00 0.00 91 1009.3
20260505190724 41 246 9.6 11.3 0.00 0.00 0.00 91 1009.2
20260505184724 41 244 11.3 13.0 0.00 0.00 0.00 90 1009.0
20260505182723 41 245 11.3 13.0 0.00 0.00 0.00 89 1008.8
20260505180724 42 240 11.3 13.9 0.00 0.00 0.00 87 1008.7
20260505174724 42 240 13.0 15.6 0.00 0.00 0.00 86 1008.5
20260505172723 43 242 12.2 14.8 0.00 0.00 0.00 84 1008.4
20260505170723 43 245 11.3 13.0 0.00 0.00 0.00 82 1008.5
20260505164723 44 251 10.4 12.2 0.00 0.00 0.00 77 1008.5
20260505162723 44 252 9.6 11.3 0.00 0.00 0.00 77 1008.6
20260505160723 44 250 9.6 11.3 0.00 0.00 0.00 76 1008.5
20260505152723 46 303 4.3 6.1 0.00 0.00 0.00 63 1008.4
20260505150723 45 279 4.3 7.0 0.00 0.00 0.00 70 1008.5
20260505124722 46 247 7.8 9.6 0.00 0.00 0.00 67 1007.6
20260505122722 46 248 7.8 9.6 0.00 0.00 0.00 72 1007.4
20260505120722 46 251 7.8 9.6 0.00 0.00 0.00 75 1007.3
20260505114722 46 265 7.8 10.4 0.00 0.00 0.00 72 1007.2
20260505112722 45 269 10.4 13.0 0.00 0.00 0.00 75 1007.1
20260505110722 45 274 11.3 13.9 0.00 0.00 0.00 74 1007.0
20260505100722 46 285 13.9 16.5 0.00 0.00 0.00 71 1006.5
20260505094721 44 271 13.9 16.5 0.00 0.02 0.00 79 1006.4
20260505092721 44 270 12.2 14.8 0.00 0.02 0.00 82 1006.2
20260505090722 44 282 10.4 13.9 0.00 0.02 0.00 84 1005.9
20260505084723 45 307 7.8 11.3 0.00 0.04 0.00 74 1005.7
20260505082722 45 327 8.7 13.0 0.00 0.04 0.00 74 1005.5
20260505080722 45 322 9.6 13.0 0.00 0.04 0.00 76 1005.3
20260505074721 45 290 9.6 12.2 0.00 0.08 0.00 74 1005.1
20260505072721 45 306 7.8 11.3 0.00 0.08 0.00 74 1004.7
20260505070721 43 307 10.4 14.8 0.00 0.08 0.00 77 1004.4
20260505064721 44 306 11.3 15.6 0.00 0.15 0.00 78 1004.0
20260505062721 44 306 8.7 11.3 0.00 0.15 0.00 76 1003.5
20260505060721 44 313 8.7 13.0 0.00 0.15 0.00 81 1003.3
20260505054721 44 305 11.3 14.8 0.00 0.15 0.00 82 1003.0
20260505052721 43 304 13.9 18.2 0.00 0.15 0.00 84 1002.8
20260505050720 44 284 20.0 25.2 0.00 0.15 0.00 83 1002.4
20260505040720 44 251 22.6 26.1 0.00 0.15 0.00 78 1001.4